OSCAR 7 (AO-7) 1 07530U 74089B 26177.95096363 -.00000030 00000+0 10246-3 0 9996 2 07530 101.9899 191.2993 0012643 112.0577 277.1703 12.53698219361741 PHASE 3B (AO-10) 1 14129U 83058B 26174.68191131 -.00000085 00000+0 00000+0 0 9993 2 14129 25.9176 218.4895 6008564 117.4551 314.9460 2.05872578295624 UOSAT 2 (UO-11) 1 14781U 84021B 26177.88662513 .00001206 00000+0 12818-3 0 9999 2 14781 97.8061 143.3531 0008474 142.5122 217.6689 14.90806409258571 LUSAT (LO-19) 1 20442U 90005G 26177.87980858 .00000117 00000+0 58509-4 0 9991 2 20442 98.8847 199.9524 0011684 172.3680 187.7684 14.34125883903781 EYESAT A (AO-27) 1 22825U 93061C 26177.92905401 .00000087 00000+0 49902-4 0 9993 2 22825 98.6877 245.3390 0009485 74.6935 285.5295 14.30944638708397 ITAMSAT (IO-26) 1 22826U 93061D 26177.90555967 .00000084 00000+0 48439-4 0 9991 2 22826 98.6824 245.2339 0009870 59.7105 300.5053 14.31371793708705 RADIO ROSTO (RS15) 1 23439U 94085A 26177.87178083 -.00000053 00000+0 -28451-3 0 9994 2 23439 64.8184 287.5538 0156272 2.0858 358.0686 11.27583421296993 JAS-2 (FO-29) 1 24278U 96046B 26177.47891755 -.00000015 00000+0 18217-4 0 9996 2 24278 98.5232 25.0778 0350900 72.3924 291.5216 13.53274769474421 TECHSAT 1B (GO-32) 1 25397U 98043D 26177.96864711 .00000060 00000+0 46233-4 0 9992 2 25397 99.0071 170.9741 0001544 144.7408 215.3873 14.24430194452726 ISS (ZARYA) 1 25544U 98067A 26177.67101756 .00008101 00000+0 15268-3 0 9990 2 25544 51.6322 253.1475 0004299 235.1263 124.9322 15.49442433573225 PCSAT (NO-44) 1 26931U 01043C 26177.86781345 .00000089 00000+0 64008-4 0 9992 2 26931 67.0492 219.2335 0006038 265.2103 94.8309 14.31959036291839 SAUDISAT 1C (SO-50) 1 27607U 02058C 26177.93292419 .00000920 00000+0 12578-3 0 9995 2 27607 64.5520 98.8324 0075044 260.6581 98.6035 14.83066213265905 CUTE-1 (CO-55) 1 27844U 03031E 26177.94213012 .00000288 00000+0 14336-3 0 9994 2 27844 98.6737 186.3784 0010126 150.6275 209.5475 14.24341351193069 CUBESAT XI-IV (CO-57) 1 27848U 03031J 26177.93548419 .00000243 00000+0 12580-3 0 9999 2 27848 98.6768 186.0767 0009653 168.4758 191.6643 14.23625736192766 MOZHAETS 4 (RS22) 1 27939U 03042A 26178.00969002 .00001221 00000+0 19615-3 0 9999 2 27939 98.3472 2.6464 0010037 234.5503 286.8726 14.73484597216998 CUBESAT XI-V 1 28895U 05043F 26177.91503074 .00001438 00000+0 23373-3 0 9992 2 28895 98.2993 333.7414 0014316 169.8184 190.3315 14.72656457103183 CUTE-1.7+APD II (CO-65) 1 32785U 08021C 26177.92694806 .00004953 00000+0 31261-3 0 9999 2 32785 97.8272 159.5484 0008764 8.9415 351.1968 15.09541243986662 SEEDS II (CO-66) 1 32791U 08021J 26177.92722942 .00019616 00000+0 61568-3 0 9994 2 32791 97.7516 176.2919 0000555 212.5247 147.5960 15.33073710988784 YUBILEINY (RS30) 1 32953U 08025A 26177.91678512 .00000029 00000+0 13811-3 0 9996 2 32953 82.5046 349.3870 0018560 291.4777 68.4323 12.43179959820905 KKS-1 (KISEKI) 1 33499U 09002H 26177.90419505 .00001307 00000+0 16712-3 0 9995 2 33499 98.1187 100.5005 0006392 257.3413 102.7086 14.83147056937631 SWISSCUBE 1 35932U 09051B 26177.47338387 .00000909 00000+0 18915-3 0 9997 2 35932 98.4029 85.5233 0006640 172.3713 187.7590 14.62497638890512 BEESAT-1 1 35933U 09051C 26177.69301354 .00000752 00000+0 16076-3 0 9998 2 35933 98.3957 85.3622 0004848 183.3217 176.7952 14.61734342890572 ITUPSAT1 1 35935U 09051E 26177.69222981 .00000700 00000+0 15443-3 0 9998 2 35935 98.4042 84.5432 0006750 199.9772 160.1164 14.60453570890126 XIWANG-1 (HOPE-1) 1 36122U 09072B 26177.89576884 -.00000022 00000+0 58148-4 0 9994 2 36122 100.4023 131.5728 0007074 207.5591 152.5147 13.16440201794287 O/OREOS (USA 219) 1 37224U 10062C 26177.77269745 .00002174 00000+0 21059-3 0 9990 2 37224 71.9714 58.6264 0012916 42.6742 317.5429 14.93781898118070 JUGNU 1 37839U 11058B 26177.91378178 .00000404 00000+0 71065-4 0 9992 2 37839 19.9597 249.3371 0018444 183.2856 332.8974 14.13779071760408 SRMSAT 1 37841U 11058D 26177.82964589 .00000372 00000+0 58081-4 0 9999 2 37841 19.9735 1.1063 0011719 310.3748 86.5215 14.11577452759189 STRAND-1 1 39090U 13009E 26177.94228705 .00000286 00000+0 11041-3 0 9999 2 39090 98.3924 357.9366 0008273 193.8738 166.2222 14.37168802698460 ZACUBE-1 (TSHEPISOSAT) 1 39417U 13066B 26177.93888484 .00003397 00000+0 26450-3 0 9996 2 39417 97.8047 140.3257 0042157 214.4867 145.3620 15.01239608682196 GOMX-1 1 39430U 13066Q 26177.92317303 .00001969 00000+0 29942-3 0 9999 2 39430 97.6486 17.7715 0129847 46.6410 314.5528 14.69492351671344 CUBEBUG-2 (LO-74) 1 39440U 13066AA 26177.84289460 .00004208 00000+0 38943-3 0 9993 2 39440 97.8903 126.8620 0057442 357.1295 2.9586 14.93837093678432 FUNCUBE-1 (AO-73) 1 39444U 13066AE 26177.86706572 .00007885 00000+0 48707-3 0 9990 2 39444 97.8271 149.5153 0036628 168.0443 192.1663 15.09599724681126 UWE-3 1 39446U 13066AG 26177.84042902 .00004205 00000+0 36187-3 0 9992 2 39446 97.8709 133.9799 0046794 288.3987 71.2149 14.97101122679020 UNISAT-6 1 40012U 14033C 26177.94937009 .00002671 00000+0 28944-3 0 9997 2 40012 97.7883 330.4899 0045676 37.8677 322.5737 14.88291089647616 DUCHIFAT-1 1 40021U 14033M 26177.60974735 .00111371 00000+0 10572-2 0 9992 2 40021 98.0448 238.1065 0001317 100.0937 260.0470 15.66536146657223 QB50P1 1 40025U 14033R 26177.96968864 .00008965 00000+0 43898-3 0 9993 2 40025 98.0962 189.8021 0008800 180.7025 179.4197 15.18403426654518 LILACSAT-2 1 40908U 15049K 26177.94611654 .00018626 00000+0 31344-3 0 9999 2 40908 97.4638 215.1596 0006434 202.1528 157.9448 15.51757568597263 FOX-1A (AO-85) 1 40967U 15058D 26177.80996918 .00002228 00000+0 20611-3 0 9994 2 40967 64.7748 249.0783 0131024 52.8500 308.4494 14.91008064115000 CAS-2T & KS-1Q 1 41847U 16066G 26177.93696725 .00001633 00000+0 23522-3 0 9992 2 41847 98.3821 253.5619 0342900 99.9996 264.0069 14.44724717506208 RADFXSAT (FOX-1B) 1 43017U 17073E 26177.86511221 .00006924 00000+0 30344-3 0 9999 2 43017 97.4694 44.8822 0148600 295.5005 63.0920 15.12844339466858 DIWATA-2B 1 43678U 18084H 26177.97285253 .00003346 00000+0 27039-3 0 9992 2 43678 98.1204 14.6084 0013020 139.4849 220.7345 15.00496152417683 ES'HAIL 2 1 43700U 18090A 26177.95584477 .00000000 00000+0 00000+0 0 9992 2 43700 0.0262 7.5952 0002169 121.3916 155.9787 1.00270039 27772 FOX-1CLIFF (AO-95) 1 43770U 18099N 26177.71185888 .00011312 00000+0 43041-3 0 9999 2 43770 97.4386 237.9235 0007135 319.9595 40.1117 15.26902666414677 ITASAT 1 43786U 18099AE 26177.70458023 .00006883 00000+0 33000-3 0 9990 2 43786 97.4027 229.0263 0011181 324.7706 35.2789 15.19167716414359 JY1SAT (JO-97) 1 43803U 18099AX 26177.68609533 .00016394 00000+0 50103-3 0 9992 2 43803 97.4134 240.5542 0005069 220.1283 139.9586 15.33941851415087 UWE-4 1 43880U 18111E 26177.79200825 .00032006 00000+0 64044-3 0 9992 2 43880 97.5848 106.6284 0004419 293.6884 66.3901 15.46703354412269 TIANYAN 01 1 44881U 19093C 26177.93965978 .00000668 00000+0 81323-4 0 9996 2 44881 97.7532 249.9340 0014890 57.9200 302.3460 14.86532203352862 RS-44 & BREEZE-KM R/B 1 44909U 19096E 26177.93420375 .00000014 00000+0 25997-5 0 9998 2 44909 82.5226 333.2271 0218470 121.4708 240.7948 12.79749023303597 SALSAT 1 46495U 20068K 26177.95657953 .00008212 00000+0 28601-3 0 9998 2 46495 97.8848 181.6168 0007822 266.2984 93.7361 15.29932421316851 XW-3 (CAS-9) 1 50466U 21131B 26177.98152819 .00000571 00000+0 18994-3 0 9991 2 50466 98.4983 270.3183 0005360 73.9357 286.2422 14.41366098236522 GREENCUBE (IO-117) 1 53109U 22080E 26177.67811985 -.00000003 00000+0 00000+0 0 9990 2 53109 70.1443 294.9444 0008984 287.5437 72.4241 6.42583228 92674 UMKA 1 (RS40S) 1 57172U 23091G 26177.96301391 .00006808 00000+0 30999-3 0 9996 2 57172 97.5052 236.6226 0014293 87.5395 272.7477 15.20927314165490 CUBESX-HSE 3 (RS42S) 1 57178U 23091N 26177.91025911 .00014417 00000+0 47592-3 0 9990 2 57178 97.5095 243.6209 0011517 64.3283 295.9146 15.31452456165916 MONITOR-3 (RS58S) 1 57180U 23091Q 26177.95632831 .00010983 00000+0 40334-3 0 9993 2 57180 97.5086 241.4744 0012737 70.5417 289.7197 15.28032087165784 MONITOR-4 (RS57S) 1 57182U 23091S 26177.93484253 .00011490 00000+0 42074-3 0 9993 2 57182 97.5080 241.4246 0012711 70.8247 289.4367 15.28116026165785 MONITOR-2 (RS39S) 1 57184U 23091U 26177.93071767 .00005249 00000+0 25364-3 0 9995 2 57184 97.5073 236.1506 0012694 81.7089 278.5584 15.18996839165433 SVYATOBOR 1 (RS60S) 1 57187U 23091X 26177.89084847 .00008866 00000+0 33910-3 0 9990 2 57187 97.5092 241.7618 0010498 65.1884 295.0445 15.26773441165792 VIZARD-METEO (RS38S) 1 57189U 23091Z 26177.91852441 .00018222 00000+0 51574-3 0 9991 2 57189 97.5095 247.5998 0007517 47.5143 312.6735 15.36325593166186 POLYTECH-UNIVERSE 3 (R*) 1 57191U 23091AB 26177.95661801 .00005675 00000+0 27190-3 0 9991 2 57191 97.5049 235.6806 0017082 95.9629 264.3553 15.19203654165430 UTMN 2 (RS27S) 1 57203U 23091AP 26177.92255566 .00013989 00000+0 45057-3 0 9998 2 57203 97.5091 245.2792 0008618 54.2364 305.9678 15.32281125166032 KUZGTU 1 (RS47S) 1 57217U 23091AV 26177.91002271 .00013414 00000+0 46225-3 0 9996 2 57217 97.5068 242.4896 0011872 67.8673 292.3826 15.30075751165862 SONATE-2 1 59112U 24043Q 26177.95845668 .00043201 00000+0 54516-3 0 9998 2 59112 97.5532 328.9589 0007313 163.6237 196.5256 15.59436847129410 MESAT1 1 60209U 24125G 26177.57752686 .00056610 00000+0 59200-3 0 9996 2 60209 97.2279 35.2796 0010498 171.0383 189.1066 15.64220272111030 OOV-CUBE (TUBSAT-30) 1 60240U 24128F 26177.30430608 .00001677 00000+0 13798-3 0 9997 2 60240 61.9924 193.7808 0043497 135.8027 224.6553 15.02804000107481 COLIBRI-S (RS67S) 1 61746U 24199M 26177.88802830 .00024214 00000+0 46216-3 0 9993 2 61746 97.2985 51.8326 0006659 231.5465 128.5189 15.48112289138910 HORS 3 (RS81S) 1 61753U 24199U 26177.93348640 .00040567 00000+0 59037-3 0 9995 2 61753 97.2971 53.9722 0004482 222.8506 137.2400 15.55635009139076 HORS 4 (RS82S) 1 61754U 24199V 26177.92814542 .00053823 00000+0 64962-3 0 9996 2 61754 97.2914 55.2328 0004422 207.0706 153.0322 15.60583101139162 SIT-2086 1 61764U 24199AF 26177.92357042 .00038974 00000+0 60760-3 0 9996 2 61764 97.2930 54.4048 0005788 206.2694 153.8267 15.53744331135948 HYPERVIEW 1G (RS66S) 1 61772U 24199AP 26177.77067532 .00148755 00000+0 84483-3 0 9997 2 61772 97.2856 57.9913 0005986 186.8100 173.3087 15.78571118136180 ALTAIR (RS65S) 1 61779U 24199AW 26177.94209874 .00011865 00000+0 32720-3 0 9998 2 61779 97.3024 47.2295 0010757 270.2284 89.7728 15.37200898138614 ASRTU-1 (AO-123) 1 61781U 24199AY 26177.93863688 .00007863 00000+0 22750-3 0 9994 2 61781 97.2996 46.5221 0011885 273.8635 86.1250 15.35809102135425 SAMSAT-IONOSPHERE (RS7*) 1 61784U 24199BB 26177.88616007 .00053796 00000+0 70294-3 0 9994 2 61784 97.2938 54.0069 0006663 228.0824 131.9865 15.58467673139072 RTU MIREA 1 (RS51S) 1 61785U 24199BC 26177.95255274 .00067933 00000+0 77015-3 0 9994 2 61785 97.2925 54.9581 0006648 219.4845 140.5929 15.62145943135999 TEVEL2-4 1 63213U 25052D 26177.96202527 .00020017 00000+0 59190-3 0 9991 2 63213 97.3900 74.3712 0004846 85.0519 275.1278 15.34944005 71611 TEVEL2-5 1 63214U 25052E 26177.98363902 .00020234 00000+0 60165-3 0 9994 2 63214 97.3899 74.3378 0004811 86.3990 273.7804 15.34767731 71614 TEVEL2-6 1 63215U 25052F 26177.67019082 .00018893 00000+0 56291-3 0 9991 2 63215 97.3903 74.0082 0004687 88.0082 272.1698 15.34718267 71560 TEVEL2-1 1 63217U 25052H 26177.96344092 .00018827 00000+0 57047-3 0 9994 2 63217 97.3871 73.9149 0005007 94.9701 265.2114 15.34183814 71592 TEVEL2-3 1 63218U 25052J 26177.69683876 .00017292 00000+0 52351-3 0 9999 2 63218 97.3879 73.6710 0004870 95.9562 264.2236 15.34230406 71555 TEVEL2-2 1 63219U 25052K 26177.96369552 .00019067 00000+0 57751-3 0 9993 2 63219 97.3872 73.9178 0005006 95.2154 264.9660 15.34194332 71591 TEVEL2-9 1 63237U 25052AD 26177.95382056 .00017392 00000+0 56093-3 0 9993 2 63237 97.3934 73.2621 0008289 104.6978 255.5183 15.32187798 71526 TEVEL2-7 1 63238U 25052AE 26177.67001963 .00015960 00000+0 52010-3 0 9992 2 63238 97.3940 72.8907 0008374 105.7247 254.4918 15.31873185 71471 TEVEL2-8 1 63239U 25052AF 26177.22110573 .00017980 00000+0 58597-3 0 9992 2 63239 97.3937 72.4192 0008385 107.6731 252.5427 15.31844407 71403 INNOSAT 16 (RS92S7) 1 64878U 25155C 26177.90679742 .00006277 00000+0 24982-3 0 9997 2 64878 97.4562 145.0039 0011637 143.4730 216.7304 15.25555055 82157 GEOSCAN 6 (RS92S6) 1 64879U 25155D 26177.92494431 .00011327 00000+0 38809-3 0 9995 2 64879 97.4553 146.5153 0009399 133.0729 227.1300 15.30326959 82254 GEOSCAN 1 (RS92S1) 1 64880U 25155E 26177.92355679 .00012909 00000+0 43355-3 0 9996 2 64880 97.4550 146.6703 0009356 133.0714 227.1311 15.30942537 82261 239ALFEROV (RS61S) 1 64881U 25155F 26177.94438225 .00015396 00000+0 48153-3 0 9992 2 64881 97.4550 147.2859 0009062 131.0718 229.1308 15.33193258 82301 GEOSCAN 2 (RS92S2) 1 64890U 25155Q 26177.91552227 .00011232 00000+0 37460-3 0 9992 2 64890 97.4549 146.8185 0008982 121.6465 238.5653 15.31207324 82271 GEOSCAN 5 (RS92S5) 1 64891U 25155R 26177.93139243 .00016006 00000+0 49568-3 0 9990 2 64891 97.4542 147.4141 0007922 134.5818 225.6072 15.33509911 82318 GEOSCAN 4 (RS92S4) 1 64892U 25155S 26177.91459481 .00015957 00000+0 49171-3 0 9992 2 64892 97.4546 147.4482 0007959 134.0683 226.1216 15.33667862 82312 GEOSCAN 3 (RS92S3) 1 64893U 25155T 26177.90262864 .00019276 00000+0 55611-3 0 9993 2 64893 97.4534 147.8943 0007922 133.2713 226.9193 15.35709754 82345 INNOSAT 3 (RS92S0) 1 64894U 25155U 26177.90349279 .00041233 00000+0 88692-3 0 9993 2 64894 97.4480 149.6359 0007767 129.1392 231.0548 15.44504212 82467 KNACKSAT-2 1 67683U 98067XZ 26177.44486485 .00049509 00000+0 58452-3 0 9999 2 67683 51.6280 247.8833 0008675 257.0459 102.9566 15.60782463 21720